Milwaukee, WI

3:35 PM CST on November 16, 2019 (GMT -0600)
Gen Mitchell International

Weather History for KMKE - September, 2019

Change the Weather History Date:

Tuesday, September 17, 2019

  Actual Average Record
Temperature  
Mean Temperature 67 °F 63 °F  
Max Temperature 73 °F 71 °F 92 °F (1891)
Min Temperature 60 °F 54 °F 39 °F (1916)
Degree Days  
Heating Degree Days 0 4  
Month to date heating degree days 8 41  
Since 1 July heating degree days 10 67  
Cooling Degree Days 2 2  
Month to date cooling degree days 61 54  
Year to date cooling degree days 667 619  
Growing Degree Days 17 (Base 50)    
Moisture  
Dew Point 62 °F    
Average Humidity 88    
Maximum Humidity 97    
Minimum Humidity 73    
Precipitation  
Precipitation 0.00 in 0.11 in 2.35 in (1907)
Month to date precipitation 5.06 1.79  
Year to date precipitation 33.47 25.97  
Snow  
Snow 0.00 in 0.00 in 0.00 in (2018)
Month to date snowfall 0.0 0.0  
Since 1 July snowfall 0.0 0.0  
Since 1 September snowfall 0.0 0.0  
Snow Depth 0.00 in    
Sea Level Pressure  
Sea Level Pressure 30.16 in    
Wind  
Wind Speed 3 mph ()    
Max Wind Speed 14 mph    
Max Gust Speed 17 mph    
Visibility 5.5 miles    
Events Fog    
T = Trace of Precipitation, MM = Missing Value Source: Averaged Metar Reports

Daily Weather History Graph

Daily Weather History Graph

Search for Another Location

Airport or City:

Astronomy

Sep. 17, 2019 Rise Set
Actual Time 6:33 AM CDT 6:58 PM CDT
Civil Twilight 6:04 AM CDT 7:26 PM CDT
Nautical Twilight 5:31 AM CDT 8:00 PM CDT
Astronomical Twilight 4:56 AM CDT 8:34 PM CDT
Moon 8:56 PM CDT (9/17) 9:41 AM CDT (9/17)
Length of Visible Light 13h 21m
Length of Day
12h 25m
Waning Gibbous, 89% of the Moon is Illuminated
Sep 17
Waning Gibbous
Sep 21
Last Quarter
Sep 28
New
Oct 5
First Quarter
Oct 13
Full

Hourly Weather History & Observations

Time (CDT) Temp. Dew Point Humidity Pressure Visibility Wind Dir Wind Speed Gust Speed Precip Events Conditions
12:52 AM 61.0 °F 59.0 °F 93% 30.15 in 0.5 mi Calm Calm - N/A Fog Fog
1:52 AM 61.0 °F 59.0 °F 93% 30.15 in 0.5 mi Calm Calm - N/A Fog Fog
2:52 AM 61.0 °F 59.0 °F 93% 30.15 in 0.5 mi SSE 3.5 mph - N/A Fog Fog
4:52 AM 60.1 °F 57.9 °F 93% 30.16 in 0.5 mi West 3.5 mph - N/A Fog Fog
5:52 AM 60.1 °F 57.9 °F 93% 30.17 in 0.5 mi Calm Calm - N/A Fog Fog
6:52 AM 60.1 °F 59.0 °F 96% 30.19 in 0.2 mi ENE 3.5 mph - N/A Fog Fog
7:40 AM 61.0 °F 59.0 °F 93% 30.20 in 0.5 mi East 5.8 mph - N/A Fog Fog
7:52 AM 61.0 °F 59.0 °F 93% 30.21 in 0.5 mi East 4.6 mph - N/A Fog Fog
8:27 AM 61.0 °F 60.1 °F 97% 30.21 in 0.5 mi Calm Calm - N/A Fog Fog
8:52 AM 62.1 °F 60.1 °F 93% 30.21 in 0.5 mi Calm Calm - N/A Fog Fog
9:52 AM 64.0 °F 62.1 °F 93% 30.21 in 0.5 mi ESE 4.6 mph - N/A Fog Fog
10:52 AM 66.0 °F 63.0 °F 90% 30.21 in 2.0 mi Calm Calm - N/A   Overcast
11:03 AM 66.0 °F 63.0 °F 90% 30.21 in 3.0 mi Variable 3.5 mph - N/A   Overcast
11:32 AM 68.0 °F 63.0 °F 84% 30.20 in 10.0 mi South 5.8 mph - N/A   Mostly Cloudy
11:52 AM 70.0 °F 64.0 °F 81% 30.19 in 10.0 mi SSE 5.8 mph - N/A   Mostly Cloudy
12:22 PM 71.1 °F 64.0 °F 78% 30.19 in 10.0 mi South 5.8 mph - N/A   Scattered Clouds
12:52 PM 73.0 °F 64.9 °F 76% 30.17 in 10.0 mi SE 4.6 mph - N/A   Partly Cloudy
1:52 PM 72.0 °F 64.0 °F 76% 30.15 in 10.0 mi ESE 10.4 mph - N/A   Partly Cloudy
2:52 PM 73.0 °F 64.0 °F 73% 30.14 in 10.0 mi ESE 10.4 mph - N/A   Scattered Clouds
3:52 PM 72.0 °F 64.0 °F 76% 30.13 in 10.0 mi ESE 12.7 mph - N/A   Scattered Clouds
4:52 PM 71.1 °F 64.0 °F 78% 30.13 in 10.0 mi ESE 13.8 mph - N/A   Scattered Clouds
5:52 PM 68.0 °F 64.0 °F 87% 30.13 in 10.0 mi ESE 8.1 mph - N/A   Mostly Cloudy
6:52 PM 66.9 °F 62.1 °F 84% 30.12 in 10.0 mi SE 5.8 mph - N/A   Mostly Cloudy
7:52 PM 64.9 °F 62.1 °F 90% 30.12 in 10.0 mi ESE 4.6 mph - N/A   Scattered Clouds
8:52 PM 64.0 °F 61.0 °F 90% 30.13 in 10.0 mi ESE 6.9 mph - N/A   Partly Cloudy
9:52 PM 64.9 °F 62.1 °F 90% 30.13 in 8.0 mi ESE 4.6 mph - N/A   Partly Cloudy
10:52 PM 64.9 °F 62.1 °F 90% 30.13 in 8.0 mi ESE 4.6 mph - N/A   Partly Cloudy
11:52 PM 64.9 °F 62.1 °F 90% 30.12 in 8.0 mi SSE 4.6 mph - N/A   Clear